weather.gov     
National Weather Service

Terminal Aerodrome Forecast
NWS Homepage
This page is being discontinued on March 12, 2014.
The same data is available at this site. Please update your bookmarks.
Thank you, and we apologize for the inconvenience.
Please send an email to SR-SRH.Webmaster@noaa.gov with any concerns.


Current Version
Previous Version:    01  02  03  04  05  06  07  08  09  10  11  12  13  14  15  16  17  18  19  20  21  22  23  24  25  26  27  28  29  30  
   31  32  33  34  35  36  37  38  39  40  41  
[Printable]
710
FTUS42 KJAX 220300 AAA
TAFJAX
TAF AMD
KJAX 220314Z 2203/2224 04006KT 3SM BR VCSH OVC004
     FM220430 VRB03KT 2SM SHRA BR OVC002
      TEMPO 2207/2211 3/4SM RA BR
     FM221400 10005KT 5SM -RA BR OVC004
     FM221800 08006KT P6SM VCSH OVC008=


U.S. Dept. of Commerce
NOAA National Weather Service
1325 East West Highway
Silver Spring, MD 20910
E-mail: w-nws.webmaster@noaa.gov
Page last modified: May 16, 2007
NATIONAL WEATHER SERVICE: for Safety, for Work, for Fun - FOR LIFE